"startDT [UTC]","vpos","CH4 [ppm]","stdev(CH4) [ppm]","CO2 [ppm]","stdev(CO2) [ppm]","H2O [ppm]","stdev(H2O)","p_LGR [torr]","T_LGR [C]","mt1_LGR [us]","mt2_LGR [us]","T_ECpre [C]","T_EC1 [C]","T_EC2 [C]","p_inlet [hPa]","p_in [hPa]","p_out [hPa]","T_inlet [C]","RH_inlet [%]","dwpt_inlet [C]","T_vent [C]","RH_vent [%]","dwpt_vent [C]","flow_vent [l min-1]","flow_inlet [l min-1]","dwpt_sample [C]","T_room [C]"
2012-03-02 00:00:00,0.0,1.9164,0.0012,402.31,0.27,-1.0,0.0,138.19,25.13,24.58,36.24,0.04,-272.73,-272.73,-48,555,-936,20.0,1.1,-37.2,20.1,1.1,-36.8,5.73,2.47,-33.9,24.4
2012-03-02 00:01:00,0.0,1.9164,0.0009,402.44,0.23,-1.0,0.0,138.19,25.14,24.58,36.24,0.04,-272.73,-272.73,-48,555,-936,20.0,1.0,-37.5,20.1,1.1,-37.0,5.73,2.38,-33.8,24.4
2012-03-02 00:02:00,0.0,1.9168,0.0013,402.59,0.30,-1.0,0.0,138.19,25.14,24.58,36.23,0.04,-272.73,-272.74,-48,555,-936,20.0,1.0,-37.5,20.1,1.1,-36.9,5.73,2.49,-33.8,24.4
2012-03-02 00:03:00,0.0,1.9171,0.0011,402.48,0.31,-1.0,0.0,138.19,25.14,24.58,36.24,0.04,-272.73,-272.73,-48,555,-936,20.0,1.0,-37.5,20.1,1.1,-36.9,5.73,2.36,-33.8,24.4
2012-03-02 00:04:00,0.0,1.9160,0.0009,402.50,0.25,-0.6,3.1,138.19,25.15,24.58,36.23,0.04,-272.73,-272.73,-48,555,-936,20.0,1.0,-37.5,20.1,1.1,-37.0,5.73,2.50,-33.8,24.5
2012-03-02 00:05:00,0.0,1.9168,0.0011,402.32,0.26,-1.0,0.0,138.19,25.15,24.58,36.23,0.04,-272.73,-272.73,-48,555,-936,20.0,1.0,-37.5,20.1,1.1,-37.0,5.73,2.36,-33.9,24.4
2012-03-02 00:06:00,0.0,1.9170,0.0011,402.46,0.24,-1.0,0.0,138.19,25.15,24.58,36.24,0.04,-272.73,-272.73,-48,555,-936,20.0,1.0,-37.5,20.1,1.1,-37.0,5.73,2.50,-33.8,24.5
2012-03-02 00:07:00,0.0,1.9162,0.0009,402.50,0.23,-1.0,0.0,138.19,25.15,24.58,36.24,0.04,-272.73,-272.73,-48,555,-936,20.0,1.0,-37.5,20.1,1.1,-37.0,5.73,2.35,-33.9,24.5
2012-03-02 00:08:00,0.0,1.9170,0.0011,402.62,0.31,-1.0,0.0,138.19,25.16,24.57,36.24,0.04,-272.73,-272.73,-48,555,-936,20.0,1.0,-37.5,20.1,1.1,-36.9,5.73,2.51,-33.8,24.5
2012-03-02 00:09:00,0.0,1.9171,0.0012,402.64,0.21,-1.0,0.0,138.19,25.16,24.58,36.24,0.04,-272.73,-272.73,-48,555,-936,20.0,1.0,-37.5,20.1,1.1,-37.2,5.73,2.35,-33.8,24.5
2012-03-02 00:10:00,0.0,1.9170,0.0011,402.71,0.24,-1.0,0.0,138.19,25.16,24.58,36.23,0.04,-272.73,-272.73,-48,555,-936,20.0,1.0,-37.6,20.1,1.1,-37.2,5.73,2.50,-33.8,24.5
2012-03-02 00:11:00,0.0,1.9168,0.0010,402.64,0.27,-1.0,0.0,138.19,25.16,24.58,36.23,0.04,-272.72,-272.73,-48,555,-936,20.0,1.0,-37.5,20.1,1.1,-37.1,5.73,2.36,-33.8,24.5
2012-03-02 00:12:00,0.0,1.9176,0.0012,402.79,0.24,-1.0,0.0,138.19,25.16,24.58,36.23,0.04,-272.73,-272.74,-48,555,-936,20.0,1.0,-37.5,20.1,1.1,-36.9,5.73,2.49,-33.8,24.5
2012-03-02 00:13:00,0.0,1.9170,0.0011,403.18,0.34,-1.0,0.0,138.19,25.17,24.58,36.23,0.04,-272.73,-272.73,-48,555,-936,20.0,1.0,-37.6,20.1,1.1,-37.0,5.73,2.37,-33.8,24.6
2012-03-02 00:14:00,0.0,1.9162,0.0010,403.38,0.28,-1.0,0.0,138.19,25.17,24.58,36.23,0.04,-272.73,-272.73,-48,555,-936,20.0,1.0,-37.4,20.1,1.1,-37.0,5.73,2.48,-33.8,24.6
2012-03-02 00:15:00,0.0,1.9168,0.0010,403.49,0.28,-1.0,0.0,138.19,25.17,24.58,36.23,0.04,-272.73,-272.73,-48,555,-936,20.0,1.1,-37.2,20.1,1.1,-36.8,5.73,2.38,-33.8,24.5
2012-03-02 00:16:00,0.0,1.9168,0.0011,403.50,0.31,-1.0,0.0,138.19,25.17,24.58,36.23,0.04,-272.73,-272.73,-48,555,-936,20.0,1.1,-37.2,20.1,1.1,-36.7,5.73,2.47,-33.8,24.6
2012-03-02 00:17:00,0.0,1.9166,0.0010,403.35,0.29,-1.0,0.0,138.19,25.16,24.58,36.23,0.04,-272.73,-272.73,-48,555,-936,20.0,1.1,-37.2,20.1,1.1,-36.7,5.73,2.40,-33.8,24.6
2012-03-02 00:18:00,0.0,1.9168,0.0010,403.17,0.33,-1.0,0.0,138.19,25.16,24.58,36.23,0.04,-272.73,-272.73,-48,555,-936,20.0,1.1,-37.2,20.1,1.1,-36.6,5.73,2.44,-33.8,24.6
2012-03-02 00:19:00,0.0,1.9168,0.0012,403.01,0.29,-1.0,0.0,138.19,25.16,24.58,36.24,0.04,-272.73,-272.73,-48,555,-936,20.0,1.1,-37.0,20.1,1.1,-36.4,5.73,2.44,-33.8,24.6
2012-03-02 00:20:00,0.0,1.9161,0.0011,402.92,0.28,-1.0,0.0,138.19,25.16,24.58,36.23,0.04,-272.73,-272.73,-48,555,-936,20.0,1.1,-37.0,20.1,1.1,-36.5,5.73,2.41,-33.8,24.5
2012-03-02 00:21:00,0.0,1.9159,0.0010,402.82,0.28,-1.0,0.0,138.19,25.17,24.58,36.24,0.04,-272.73,-272.73,-48,555,-936,20.0,1.1,-36.9,20.1,1.1,-36.4,5.73,2.46,-33.8,24.5
2012-03-02 00:22:00,0.0,1.9150,0.0013,402.85,0.28,-1.0,0.0,138.19,25.17,24.58,36.23,0.04,-272.73,-272.73,-48,555,-936,20.0,1.1,-36.9,20.1,1.1,-36.4,5.73,2.40,-33.8,24.5
2012-03-02 00:23:00,0.0,1.9142,0.0011,402.91,0.26,-1.0,0.0,138.19,25.17,24.58,36.23,0.04,-272.73,-272.73,-48,555,-936,20.0,1.1,-36.7,20.1,1.2,-36.3,5.73,2.47,-33.8,24.5
2012-03-02 00:24:00,0.0,1.9151,0.0011,402.81,0.25,-1.0,0.0,138.19,25.17,24.58,36.24,0.04,-272.73,-272.73,-48,555,-936,20.0,1.1,-36.7,20.1,1.2,-36.2,5.73,2.38,-33.8,24.5
2012-03-02 00:25:00,0.0,1.9151,0.0010,402.79,0.27,-1.0,0.0,138.19,25.18,24.58,36.24,0.04,-272.73,-272.73,-48,556,-936,20.0,1.1,-36.7,20.1,1.2,-36.2,5.73,2.48,-33.8,24.5
2012-03-02 00:26:00,0.0,1.9142,0.0011,402.92,0.25,-1.0,0.0,138.19,25.18,24.58,36.23,0.04,-272.73,-272.73,-48,555,-936,20.0,1.1,-36.7,20.1,1.2,-36.2,5.73,2.36,-33.8,24.5
2012-03-02 00:27:00,0.0,1.9145,0.0011,402.83,0.25,-1.0,0.0,138.19,25.18,24.58,36.23,0.04,-272.73,-272.73,-48,556,-936,20.1,1.1,-36.7,20.1,1.2,-36.2,5.73,2.50,-33.8,24.6
2012-03-02 00:28:00,0.0,1.9162,0.0012,402.81,0.30,-1.0,0.0,138.19,25.18,24.58,36.24,0.04,-272.73,-272.73,-48,556,-936,20.0,1.1,-36.7,20.1,1.2,-36.2,5.73,2.35,-33.8,24.6
2012-03-02 00:29:00,0.0,1.9166,0.0011,402.74,0.28,-1.0,0.0,138.19,25.18,24.58,36.24,0.04,-272.73,-272.73,-48,555,-936,20.0,1.1,-36.7,20.1,1.2,-36.2,5.73,2.50,-33.8,24.6
2012-03-02 00:30:00,0.0,1.9159,0.0009,402.78,0.29,-1.0,0.0,138.19,25.18,24.58,36.23,0.04,-272.73,-272.73,-48,556,-936,20.0,1.1,-36.6,20.1,1.2,-36.2,5.73,2.35,-33.8,24.6
2012-03-02 00:31:00,0.0,1.9159,0.0010,402.79,0.24,-1.0,0.0,138.19,25.18,24.58,36.24,0.04,-272.73,-272.73,-48,556,-936,20.0,1.1,-36.7,20.1,1.2,-36.2,5.73,2.50,-33.8,24.6
2012-03-02 00:32:00,0.0,1.9158,0.0010,402.80,0.26,-1.0,0.0,138.19,25.18,24.58,36.24,0.04,-272.73,-272.73,-48,556,-936,20.1,1.1,-36.7,20.1,1.2,-36.2,5.73,2.35,-33.8,24.5
2012-03-02 00:33:00,0.0,1.9160,0.0011,402.77,0.27,-0.9,0.9,138.19,25.18,24.58,36.23,0.04,-272.73,-272.73,-48,556,-936,20.1,1.1,-36.7,20.1,1.2,-36.2,5.73,2.50,-33.8,24.6
2012-03-02 00:34:00,0.0,1.9164,0.0009,402.85,0.26,-1.0,0.0,138.19,25.18,24.58,36.23,0.04,-272.73,-272.73,-48,555,-936,20.1,1.1,-36.7,20.1,1.2,-36.2,5.73,2.36,-33.8,24.5
2012-03-02 00:35:00,0.0,1.9161,0.0010,402.95,0.30,-1.0,0.0,138.19,25.18,24.58,36.23,0.04,-272.72,-272.73,-48,556,-936,20.1,1.1,-36.7,20.1,1.2,-36.2,5.73,2.49,-33.8,24.6
2012-03-02 00:36:00,0.0,1.9157,0.0010,402.92,0.31,-1.0,0.0,138.19,25.18,24.58,36.23,0.04,-272.73,-272.73,-48,556,-936,20.1,1.1,-36.7,20.1,1.2,-36.2,5.73,2.37,-33.8,24.5
2012-03-02 00:37:00,0.0,1.9154,0.0012,402.85,0.31,-1.0,0.0,138.19,25.19,24.58,36.24,0.04,-272.73,-272.73,-48,556,-936,20.1,1.1,-36.7,20.1,1.2,-36.2,5.73,2.48,-33.7,24.5
2012-03-02 00:38:00,0.0,1.9159,0.0012,402.91,0.25,-1.0,0.0,138.19,25.19,24.58,36.23,0.04,-272.73,-272.73,-48,556,-936,20.0,1.1,-36.7,20.1,1.2,-36.2,5.73,2.38,-33.3,24.6
2012-03-02 00:39:00,0.0,1.9158,0.0009,402.91,0.27,-1.0,0.0,138.19,25.19,24.58,36.23,0.04,-272.73,-272.73,-48,556,-936,20.1,1.1,-36.7,20.1,1.2,-36.2,5.73,2.46,-33.3,24.5
2012-03-02 00:40:00,0.0,1.9158,0.0009,402.94,0.25,-1.0,0.0,138.19,25.19,24.58,36.24,0.04,-272.73,-272.73,-48,556,-936,20.1,1.1,-36.7,20.1,1.2,-36.2,5.73,2.40,-33.3,24.6
2012-03-02 00:41:00,0.0,1.9157,0.0012,402.99,0.25,-1.0,0.0,138.19,25.19,24.58,36.23,0.04,-272.73,-272.73,-48,556,-936,20.1,1.1,-36.7,20.1,1.2,-36.2,5.73,2.44,-33.3,24.7
2012-03-02 00:42:00,0.0,1.9155,0.0011,403.22,0.31,-1.0,0.0,138.19,25.19,24.58,36.23,0.24,-271.07,-272.66,-48,556,-936,20.1,1.1,-36.7,20.1,1.2,-36.2,5.42,2.47,-37.0,24.6
2012-03-02 00:43:00,0.0,1.9157,0.0012,403.00,0.26,-1.0,0.0,138.19,25.19,24.58,36.24,0.04,-272.73,-272.73,-48,556,-936,20.1,1.1,-36.7,20.1,1.2,-36.2,5.73,2.42,-33.3,24.6
2012-03-02 00:44:00,0.0,1.9164,0.0011,403.09,0.26,-1.0,0.0,138.19,25.19,24.57,36.23,0.04,-272.73,-272.73,-48,556,-936,20.1,1.1,-36.7,20.1,1.2,-36.2,5.73,2.44,-33.3,24.7
2012-03-02 00:45:00,0.0,1.9162,0.0012,402.96,0.29,-1.0,0.0,138.19,25.19,24.57,36.24,0.04,-272.73,-272.73,-48,556,-936,20.1,1.1,-36.5,20.1,1.2,-36.2,5.73,2.41,-33.3,24.6
2012-03-02 00:46:00,0.0,1.9161,0.0012,402.93,0.27,-1.0,0.0,138.19,25.19,24.58,36.23,0.04,-272.73,-272.73,-48,556,-936,20.1,1.1,-36.4,20.1,1.2,-36.0,5.73,2.46,-33.3,24.6
2012-03-02 00:47:00,0.0,1.9157,0.0011,402.97,0.28,-1.0,0.0,138.19,25.20,24.58,36.23,0.04,-272.73,-272.73,-48,556,-936,20.1,1.1,-36.5,20.1,1.2,-35.9,5.73,2.38,-33.3,24.6
2012-03-02 00:48:00,0.0,1.9165,0.0010,402.95,0.26,-1.0,0.0,138.19,25.20,24.58,36.23,0.04,-272.73,-272.73,-48,556,-936,20.1,1.1,-36.5,20.2,1.2,-36.0,5.73,2.48,-33.3,24.6
2012-03-02 00:49:00,0.0,1.9171,0.0011,402.81,0.28,-1.0,0.0,138.19,25.20,24.58,36.23,0.04,-272.73,-272.73,-48,556,-936,20.1,1.1,-36.4,20.1,1.2,-36.0,5.73,2.37,-33.3,24.6
2012-03-02 00:50:00,0.0,1.9174,0.0009,402.61,0.30,-1.0,0.0,138.19,25.19,24.58,36.23,0.04,-272.73,-272.73,-48,556,-936,20.1,1.1,-36.4,20.2,1.2,-35.9,5.73,2.49,-33.3,24.7
2012-03-02 00:51:00,0.0,1.9168,0.0011,402.48,0.28,-1.0,0.0,138.19,25.19,24.58,36.24,0.04,-272.73,-272.73,-48,556,-936,20.1,1.1,-36.5,20.2,1.2,-36.2,5.73,2.36,-33.3,24.7
2012-03-02 00:52:00,0.0,1.9164,0.0012,402.66,0.21,-1.0,0.0,138.19,25.20,24.58,36.23,0.04,-272.73,-272.73,-48,556,-936,20.1,1.1,-36.6,20.2,1.2,-36.2,5.73,2.51,-33.3,24.7
2012-03-02 00:53:00,0.0,1.9161,0.0010,402.40,0.27,-1.0,0.0,138.19,25.20,24.58,36.23,0.04,-272.73,-272.73,-48,556,-936,20.1,1.1,-36.7,20.2,1.2,-36.1,5.73,2.35,-33.3,24.7
2012-03-02 00:54:00,0.0,1.9165,0.0010,402.34,0.30,-1.0,0.0,138.19,25.21,24.58,36.23,0.04,-272.73,-272.73,-48,556,-936,20.1,1.1,-36.5,20.2,1.2,-36.2,5.73,2.51,-33.3,24.6
2012-03-02 00:55:00,0.0,1.9166,0.0012,402.34,0.27,-1.0,0.0,138.19,25.21,24.58,36.23,0.04,-272.73,-272.73,-48,556,-936,20.1,1.1,-36.4,20.2,1.2,-36.0,5.73,2.35,-33.3,24.7
2012-03-02 00:56:00,0.0,1.9162,0.0009,402.24,0.21,-1.0,0.0,138.19,25.21,24.58,36.24,0.04,-272.73,-272.73,-48,556,-936,20.1,1.1,-36.4,20.2,1.2,-35.9,5.73,2.50,-33.3,24.6
2012-03-02 00:57:00,0.0,1.9166,0.0011,402.34,0.26,-1.0,0.0,138.19,25.21,24.58,36.23,0.04,-272.73,-272.73,-48,556,-936,20.1,1.1,-36.4,20.2,1.2,-35.9,5.73,2.35,-33.3,24.6
2012-03-02 00:58:00,0.0,1.9162,0.0012,402.48,0.27,-1.0,0.0,138.19,25.21,24.58,36.23,0.04,-272.73,-272.73,-48,556,-936,20.1,1.1,-36.4,20.2,1.2,-35.9,5.73,2.49,-33.3,24.7
2012-03-02 00:59:00,0.0,1.9160,0.0012,402.34,0.26,-1.0,0.0,138.19,25.21,24.58,36.24,0.04,-272.74,-272.73,-48,556,-936,20.1,1.1,-36.4,20.2,1.2,-35.9,5.73,2.37,-33.3,24.6
2012-03-02 01:00:00,0.0,1.9158,0.0011,402.40,0.31,-1.0,0.0,138.19,25.22,24.58,36.23,0.04,-272.73,-272.73,-48,556,-936,20.1,1.1,-36.4,20.2,1.2,-35.9,5.73,2.48,-33.3,24.7
2012-03-02 01:01:00,0.0,1.9153,0.0011,402.54,0.29,-1.0,0.0,138.19,25.22,24.58,36.23,0.04,-272.73,-272.73,-48,556,-936,20.1,1.2,-36.1,20.2,1.2,-35.6,5.73,2.38,-33.3,24.7
2012-03-02 01:02:00,0.0,1.9157,0.0012,402.59,0.28,-1.0,0.0,138.19,25.23,24.58,36.23,0.04,-272.73,-272.73,-48,556,-936,20.1,1.2,-36.2,20.2,1.2,-35.7,5.73,2.46,-33.3,24.7
2012-03-02 01:03:00,0.0,1.9169,0.0010,402.79,0.26,-1.0,0.0,138.19,25.23,24.58,36.24,0.04,-272.73,-272.73,-48,556,-936,20.1,1.2,-36.2,20.2,1.2,-35.7,5.73,2.40,-33.3,24.8
2012-03-02 01:04:00,0.0,1.9174,0.0010,402.62,0.27,-1.0,0.0,138.19,25.23,24.58,36.24,0.04,-272.73,-272.73,-48,556,-936,20.1,1.2,-36.2,20.2,1.2,-35.7,5.73,2.44,-33.3,24.7
2012-03-02 01:05:00,0.0,1.9174,0.0009,402.62,0.24,-1.0,0.0,138.19,25.23,24.58,36.23,0.04,-272.73,-272.73,-48,556,-936,20.1,1.2,-36.2,20.2,1.2,-35.6,5.73,2.42,-33.3,24.7
2012-03-02 01:06:00,0.0,1.9172,0.0012,402.48,0.23,-1.0,0.0,138.19,25.23,24.57,36.24,0.04,-272.73,-272.73,-48,556,-936,20.1,1.2,-36.0,20.2,1.2,-35.5,5.73,2.42,-33.3,24.7
2012-03-02 01:07:00,0.0,1.9177,0.0009,402.73,0.31,-1.0,0.0,138.19,25.23,24.58,36.23,0.04,-272.73,-272.73,-49,556,-936,20.1,1.2,-35.9,20.2,1.3,-35.5,5.73,2.44,-33.3,24.7
2012-03-02 01:08:00,0.0,1.9182,0.0011,402.99,0.27,-1.0,0.0,138.19,25.23,24.58,36.24,0.04,-272.73,-272.73,-48,556,-936,20.2,1.2,-35.9,20.2,1.2,-35.4,5.73,2.41,-33.3,24.7
2012-03-02 01:09:00,0.0,1.9177,0.0012,403.12,0.26,-1.0,0.0,138.19,25.23,24.58,36.23,0.04,-272.73,-272.73,-48,556,-936,20.1,1.2,-35.9,20.2,1.3,-35.4,5.73,2.45,-33.3,24.7
2012-03-02 01:10:00,0.0,1.9172,0.0010,402.82,0.26,-1.0,0.0,138.19,25.24,24.58,36.23,0.04,-272.73,-272.73,-48,556,-936,20.1,1.2,-36.0,20.3,1.3,-35.3,5.73,2.40,-33.3,24.7
2012-03-02 01:11:00,0.0,1.9173,0.0010,402.89,0.23,-1.0,0.0,138.19,25.24,24.58,36.24,0.04,-272.73,-272.73,-48,556,-936,20.2,1.2,-35.9,20.3,1.3,-35.2,5.73,2.47,-33.3,24.8
2012-03-02 01:12:00,0.0,1.9173,0.0011,403.06,0.28,-1.0,0.0,138.19,25.24,24.58,36.23,0.04,-272.73,-272.73,-49,556,-936,20.2,1.2,-35.7,20.3,1.3,-35.2,5.73,2.38,-33.3,24.7
2012-03-02 01:13:00,0.0,1.9183,0.0011,403.10,0.29,-1.0,0.0,138.19,25.24,24.58,36.23,0.04,-272.73,-272.73,-48,556,-936,20.2,1.2,-35.7,20.3,1.3,-35.2,5.73,2.48,-33.3,24.8
2012-03-02 01:14:00,0.0,1.9172,0.0011,402.92,0.33,-1.0,0.0,138.19,25.24,24.58,36.23,0.04,-272.73,-272.73,-49,556,-936,20.2,1.2,-35.7,20.3,1.3,-35.3,5.73,2.36,-33.3,24.7
2012-03-02 01:15:00,0.0,1.9173,0.0009,402.85,0.25,-1.0,0.0,138.19,25.24,24.58,36.23,0.04,-272.73,-272.73,-48,557,-936,20.2,1.2,-35.6,20.3,1.3,-35.1,5.73,2.50,-33.3,24.8
2012-03-02 01:16:00,0.0,1.9167,0.0010,402.56,0.25,-1.0,0.0,138.18,25.25,24.58,36.24,0.04,-272.73,-272.73,-48,556,-936,20.2,1.2,-35.7,20.3,1.3,-35.2,5.73,2.35,-33.3,24.8
2012-03-02 01:17:00,0.0,1.9162,0.0010,402.67,0.26,-1.0,0.0,138.19,25.25,24.58,36.24,0.04,-272.73,-272.73,-48,557,-936,20.2,1.2,-36.0,20.3,1.3,-35.3,5.73,2.50,-33.3,24.8
2012-03-02 01:18:00,0.0,1.9171,0.0010,402.72,0.26,-1.0,0.0,138.19,25.25,24.58,36.24,0.04,-272.73,-272.73,-48,557,-936,20.2,1.2,-35.9,20.3,1.3,-35.4,5.73,2.35,-33.2,24.8
2012-03-02 01:19:00,0.0,1.9170,0.0011,402.64,0.27,-1.0,0.0,138.18,25.25,24.58,36.23,0.04,-272.73,-272.73,-49,557,-936,20.2,1.2,-35.9,20.3,1.3,-35.4,5.73,2.49,-33.2,24.8
2012-03-02 01:20:00,0.0,1.9159,0.0010,402.60,0.25,-1.0,0.0,138.18,25.26,24.58,36.23,0.04,-272.73,-272.73,-48,557,-936,20.2,1.2,-35.9,20.3,1.2,-35.5,5.73,2.37,-33.2,24.8
2012-03-02 01:21:00,0.0,1.9158,0.0012,402.77,0.31,-1.0,0.0,138.19,25.26,24.58,36.23,0.04,-272.73,-272.73,-49,557,-936,20.2,1.2,-35.9,20.3,1.2,-35.4,5.73,2.47,-33.2,24.8
2012-03-02 01:22:00,0.0,1.9165,0.0011,402.77,0.29,-1.0,0.0,138.18,25.27,24.58,36.23,0.24,-271.07,-272.65,-48,557,-936,20.2,1.2,-35.9,20.3,1.2,-35.4,5.42,2.40,-36.9,24.8
2012-03-02 01:23:00,0.0,1.9170,0.0011,402.99,0.28,-1.0,0.0,138.18,25.27,24.58,36.23,0.04,-272.73,-272.73,-48,557,-936,20.2,1.2,-35.9,20.3,1.3,-35.4,5.73,2.44,-33.2,24.9
2012-03-02 01:24:00,0.0,1.9176,0.0011,402.96,0.30,-1.0,0.0,138.18,25.27,24.58,36.25,0.04,-272.73,-272.73,-49,556,-936,20.2,1.2,-35.9,20.3,1.2,-35.5,5.73,2.41,-33.2,24.9
2012-03-02 01:25:00,0.0,1.9173,0.0010,403.14,0.24,-1.0,0.0,138.18,25.27,24.58,36.23,0.04,-272.73,-272.73,-48,557,-936,20.2,1.2,-35.9,20.3,1.2,-35.4,5.73,2.43,-33.2,24.9
2012-03-02 01:26:00,0.0,1.9163,0.0011,403.14,0.24,-1.0,0.0,138.18,25.28,24.58,36.24,0.04,-272.73,-272.73,-49,557,-936,20.2,1.2,-35.9,20.3,1.3,-35.4,5.73,2.43,-33.1,24.9
2012-03-02 01:27:00,0.0,1.9156,0.0013,403.05,0.25,-1.0,0.0,138.18,25.28,24.58,36.23,0.04,-272.73,-272.73,-48,557,-936,20.3,1.2,-35.9,20.3,1.2,-35.4,5.73,2.42,-33.1,25.0
2012-03-02 01:28:00,0.0,1.9164,0.0014,403.01,0.30,-1.0,0.0,138.18,25.29,24.58,36.24,0.04,-272.73,-272.73,-49,557,-936,20.3,1.2,-35.8,20.3,1.3,-35.4,5.73,2.44,-33.1,25.0
2012-03-02 01:29:00,0.0,1.9169,0.0013,403.13,0.27,-1.0,0.0,138.18,25.29,24.58,36.23,0.04,-272.73,-272.73,-49,557,-936,20.3,1.2,-35.9,20.3,1.2,-35.4,5.73,2.40,-33.1,25.0
2012-03-02 01:30:00,0.0,1.9181,0.0011,403.08,0.28,-1.0,0.0,138.18,25.29,24.58,36.23,0.04,-272.73,-272.73,-48,557,-936,20.3,1.2,-35.9,20.3,1.2,-35.4,5.73,2.45,-33.1,24.9
2012-03-02 01:31:00,0.0,1.9188,0.0011,402.98,0.30,-1.0,0.0,138.18,25.30,24.58,36.23,0.04,-272.73,-272.73,-49,557,-936,20.3,1.2,-35.9,20.3,1.3,-35.4,5.73,2.40,-33.1,25.0
2012-03-02 01:32:00,0.0,1.9185,0.0010,402.85,0.25,-1.0,0.0,138.18,25.30,24.58,36.23,0.04,-272.73,-272.73,-48,557,-936,20.3,1.2,-35.8,20.3,1.3,-35.2,5.73,2.45,-33.1,25.0
2012-03-02 01:33:00,0.0,1.9174,0.0010,402.99,0.32,-1.0,0.0,138.18,25.31,24.58,36.24,0.04,-272.73,-272.73,-49,557,-936,20.3,1.2,-35.8,20.3,1.3,-35.2,5.73,2.39,-33.1,24.9
2012-03-02 01:34:00,0.0,1.9165,0.0011,402.67,0.26,-1.0,0.0,138.18,25.31,24.58,36.24,0.04,-272.74,-272.73,-48,557,-936,20.3,1.2,-35.9,20.3,1.3,-35.2,5.73,2.46,-33.1,25.0
2012-03-02 01:35:00,0.0,1.9157,0.0013,402.59,0.32,-1.0,0.0,138.18,25.32,24.58,36.23,0.04,-272.73,-272.73,-49,557,-936,20.3,1.3,-35.3,20.3,1.3,-34.9,5.73,2.39,-33.1,25.0
2012-03-02 01:36:00,0.0,1.9145,0.0010,402.37,0.28,-1.0,0.0,138.18,25.32,24.58,36.23,0.04,-272.73,-272.73,-48,557,-936,20.3,1.3,-35.3,20.3,1.3,-34.8,5.73,2.46,-33.1,25.1
2012-03-02 01:37:00,0.0,1.9139,0.0011,402.24,0.27,-1.0,0.0,138.18,25.33,24.58,36.24,0.04,-272.73,-272.73,-48,557,-936,20.3,1.2,-35.4,20.4,1.3,-35.0,5.73,2.38,-33.1,25.1
2012-03-02 01:38:00,0.0,1.9147,0.0011,402.42,0.30,-1.0,0.0,138.18,25.34,24.58,36.23,0.04,-272.73,-272.73,-49,557,-936,20.3,1.3,-35.4,20.4,1.3,-34.9,5.73,2.46,-33.2,25.1
2012-03-02 01:39:00,0.0,1.9157,0.0011,402.30,0.26,-1.0,0.0,138.18,25.34,24.58,36.24,0.04,-272.73,-272.73,-48,557,-936,20.3,1.3,-35.1,20.4,1.3,-34.7,5.73,2.38,-33.1,25.1
2012-03-02 01:40:00,0.0,1.9162,0.0010,402.28,0.26,-1.0,0.0,138.18,25.34,24.58,36.23,0.04,-272.73,-272.73,-49,557,-936,20.3,1.3,-35.1,20.4,1.4,-34.5,5.73,2.47,-33.1,25.1
2012-03-02 01:41:00,0.0,1.9156,0.0011,402.25,0.29,-1.0,0.0,138.18,25.34,24.58,36.24,0.04,-272.73,-272.73,-48,557,-936,20.3,1.3,-35.0,20.4,1.4,-34.5,5.73,2.38,-33.1,25.1
2012-03-02 01:42:00,0.0,1.9146,0.0011,402.20,0.22,-1.0,0.0,138.18,25.34,24.58,36.24,0.04,-272.73,-272.73,-49,557,-937,20.3,1.3,-35.0,20.4,1.4,-34.5,5.73,2.48,-33.1,25.0
2012-03-02 01:43:00,0.0,1.9140,0.0010,402.15,0.32,-1.0,0.0,138.18,25.35,24.58,36.24,0.04,-272.74,-272.73,-48,557,-936,20.3,1.3,-34.9,20.4,1.4,-34.4,5.73,2.37,-33.1,25.0
2012-03-02 01:44:00,0.0,1.9142,0.0010,402.15,0.32,-1.0,0.0,138.18,25.35,24.58,36.24,0.04,-272.73,-272.73,-48,557,-936,20.4,1.3,-34.9,20.4,1.4,-34.3,5.73,2.49,-33.1,25.0
2012-03-02 01:45:00,0.0,1.9140,0.0011,402.14,0.30,-1.0,0.3,138.18,25.36,24.58,36.24,0.04,-272.73,-272.73,-49,557,-936,20.4,1.3,-34.7,20.4,1.4,-34.3,5.73,2.36,-33.1,25.1
2012-03-02 01:46:00,0.0,1.9133,0.0011,402.17,0.27,-1.0,0.0,138.18,25.36,24.58,36.24,0.04,-272.73,-272.73,-48,557,-936,20.4,1.3,-34.7,20.4,1.4,-34.3,5.73,2.50,-33.1,25.1
2012-03-02 01:47:00,0.0,1.9134,0.0012,402.14,0.25,-1.0,0.0,138.18,25.37,24.58,36.24,0.04,-272.73,-272.74,-49,557,-936,20.3,1.3,-34.7,20.4,1.4,-34.3,5.73,2.35,-33.1,25.1
2012-03-02 01:48:00,0.0,1.9142,0.0012,402.34,0.32,-1.0,0.0,138.18,25.38,24.58,36.23,0.04,-272.73,-272.73,-48,558,-936,20.4,1.3,-34.7,20.4,1.4,-34.3,5.73,2.50,-33.1,25.1
2012-03-02 01:49:00,0.0,1.9148,0.0012,402.33,0.30,-1.0,0.0,138.18,25.38,24.58,36.23,0.04,-272.73,-272.73,-49,557,-937,20.4,1.3,-34.7,20.4,1.4,-34.3,5.73,2.35,-33.1,25.1
2012-03-02 01:50:00,0.0,1.9157,0.0011,402.19,0.25,-1.0,0.0,138.18,25.38,24.58,36.24,0.04,-272.73,-272.73,-48,558,-936,20.4,1.3,-34.7,20.4,1.4,-34.3,5.73,2.50,-33.1,25.1
2012-03-02 01:51:00,0.0,1.9156,0.0011,402.32,0.30,-1.0,0.0,138.18,25.38,24.58,36.23,0.04,-272.73,-272.73,-48,558,-936,20.4,1.3,-34.7,20.4,1.4,-34.3,5.73,2.36,-33.1,25.1
2012-03-02 01:52:00,0.0,1.9156,0.0010,402.11,0.29,-1.0,0.0,138.18,25.38,24.58,36.24,0.04,-272.73,-272.73,-49,557,-937,20.4,1.3,-34.7,20.5,1.4,-34.3,5.73,2.48,-33.1,25.1
2012-03-02 01:53:00,0.0,1.9162,0.0010,402.25,0.28,-1.0,0.0,138.18,25.38,24.58,36.23,0.04,-272.73,-272.73,-48,558,-937,20.4,1.3,-34.7,20.5,1.4,-34.3,5.73,2.38,-33.1,25.1
2012-03-02 01:54:00,0.0,1.9155,0.0012,402.24,0.29,-1.0,0.0,138.18,25.39,24.58,36.24,0.04,-272.73,-272.73,-49,558,-936,20.4,1.3,-34.7,20.5,1.4,-34.3,5.73,2.45,-33.1,25.0
2012-03-02 01:55:00,0.0,1.9142,0.0012,402.27,0.22,-1.0,0.0,138.18,25.39,24.58,36.23,0.04,-272.73,-272.73,-48,558,-937,20.4,1.3,-34.7,20.5,1.4,-34.3,5.73,2.42,-33.1,25.0
2012-03-02 01:56:00,0.0,1.9134,0.0013,402.23,0.21,-1.0,0.0,138.18,25.40,24.58,36.24,0.04,-272.73,-272.73,-48,558,-936,20.4,1.3,-34.7,20.5,1.4,-34.2,5.73,2.42,-33.1,25.0
2012-03-02 01:57:00,0.0,1.9139,0.0013,402.27,0.32,-1.0,0.0,138.18,25.40,24.58,36.23,0.04,-272.73,-272.73,-49,558,-937,20.4,1.3,-34.7,20.5,1.4,-34.1,5.73,2.46,-33.0,25.1
2012-03-02 01:58:00,0.0,1.9141,0.0011,402.22,0.26,-1.0,0.0,138.18,25.40,24.58,36.24,0.04,-272.73,-272.73,-48,558,-937,20.4,1.3,-34.6,20.5,1.4,-34.1,5.73,2.38,-33.0,25.1
2012-03-02 01:59:00,0.0,1.9144,0.0013,402.25,0.28,-1.0,0.0,138.18,25.41,24.58,36.23,0.04,-272.73,-272.73,-49,558,-936,20.4,1.4,-34.5,20.5,1.4,-34.1,5.73,2.49,-33.0,25.1
2012-03-02 02:00:00,0.0,1.9133,0.0010,402.19,0.32,-1.0,0.0,138.18,25.41,24.58,36.24,0.04,-272.73,-272.73,-49,558,-936,20.4,1.4,-34.5,20.5,1.4,-34.1,5.73,2.35,-33.0,25.1
2012-03-02 02:01:00,0.0,1.9131,0.0012,402.15,0.33,-1.0,0.0,138.18,25.42,24.58,36.24,0.04,-272.73,-272.73,-49,558,-937,20.4,1.4,-34.5,20.5,1.4,-34.1,5.73,2.50,-33.0,25.2
2012-03-02 02:02:00,0.0,1.9133,0.0011,402.17,0.25,-1.0,0.0,138.18,25.42,24.58,36.24,0.04,-272.73,-272.73,-49,558,-937,20.4,1.4,-34.5,20.5,1.4,-34.1,5.73,2.35,-33.0,25.2
2012-03-02 02:03:00,0.0,1.9144,0.0011,402.16,0.28,-1.0,0.0,138.18,25.43,24.58,36.24,0.04,-272.73,-272.73,-48,558,-937,20.4,1.4,-34.5,20.5,1.4,-34.0,5.73,2.50,-33.0,25.2
2012-03-02 02:04:00,0.0,1.9147,0.0012,402.13,0.30,-1.0,0.0,138.18,25.43,24.58,36.24,0.04,-272.73,-272.73,-49,558,-937,20.5,1.4,-34.5,20.5,1.4,-34.1,5.73,2.37,-33.0,25.2
2012-03-02 02:05:00,0.0,1.9141,0.0012,402.15,0.28,-1.0,0.0,138.18,25.43,24.58,36.24,0.04,-272.73,-272.73,-48,558,-936,20.5,1.4,-34.5,20.5,1.4,-34.1,5.73,2.48,-33.0,25.2
2012-03-02 02:06:00,0.0,1.9137,0.0011,402.19,0.36,-1.0,0.0,138.18,25.43,24.58,36.24,0.04,-272.73,-272.73,-49,558,-937,20.5,1.3,-34.6,20.5,1.4,-34.1,5.73,2.39,-33.0,25.1
2012-03-02 02:07:00,0.0,1.9126,0.0012,402.19,0.29,-1.0,0.0,138.18,25.44,24.58,36.24,0.04,-272.73,-272.73,-49,558,-937,20.5,1.3,-34.6,20.5,1.4,-34.2,5.73,2.45,-33.0,25.1
2012-03-02 02:08:00,0.0,1.9128,0.0011,402.22,0.26,-1.0,0.0,138.18,25.45,24.58,36.24,0.04,-272.73,-272.73,-48,558,-937,20.5,1.3,-34.7,20.5,1.4,-34.2,5.73,2.42,-33.0,25.1
2012-03-02 02:09:00,0.0,1.9133,0.0011,402.17,0.29,-1.0,0.0,138.18,25.46,24.58,36.25,0.04,-272.73,-272.73,-49,558,-937,20.5,1.3,-34.6,20.5,1.4,-34.2,5.73,2.40,-33.0,25.1
2012-03-02 02:10:00,0.0,1.9127,0.0010,402.31,0.31,-1.0,0.0,138.18,25.46,24.58,36.24,0.04,-272.73,-272.73,-49,558,-937,20.5,1.3,-34.7,20.5,1.4,-34.2,5.73,2.46,-33.0,25.2
2012-03-02 02:11:00,0.0,1.9128,0.0009,402.56,0.28,-1.0,0.0,138.18,25.47,24.58,36.24,0.04,-272.73,-272.73,-49,558,-937,20.5,1.3,-34.6,20.5,1.4,-34.3,5.73,2.38,-32.9,25.2
2012-03-02 02:12:00,0.0,1.9125,0.0011,402.59,0.33,-1.0,0.0,138.18,25.47,24.58,36.24,0.04,-272.73,-272.73,-49,558,-937,20.5,1.3,-34.7,20.5,1.4,-34.2,5.73,2.47,-33.0,25.2
2012-03-02 02:13:00,0.0,1.9128,0.0012,402.45,0.30,-1.0,0.0,138.18,25.47,24.58,36.24,0.04,-272.73,-272.73,-48,558,-936,20.5,1.3,-34.6,20.5,1.4,-34.2,5.73,2.36,-32.9,25.2
2012-03-02 02:14:00,0.0,1.9132,0.0010,402.40,0.34,-1.0,0.0,138.18,25.48,24.58,36.24,0.04,-272.73,-272.73,-49,558,-937,20.5,1.3,-34.8,20.5,1.4,-34.3,5.73,2.49,-32.9,25.2
2012-03-02 02:15:00,0.0,1.9137,0.0010,402.35,0.34,-1.0,0.0,138.18,25.48,24.58,36.24,0.04,-272.73,-272.73,-49,558,-937,20.5,1.3,-34.9,20.5,1.4,-34.4,5.73,2.35,-32.9,25.2
2012-03-02 02:16:00,0.0,1.9137,0.0012,402.33,0.31,-1.0,0.0,138.18,25.48,24.58,36.24,0.04,-272.73,-272.73,-49,558,-936,20.5,1.3,-35.1,20.5,1.3,-34.5,5.73,2.52,-32.9,25.3
2012-03-02 02:17:00,0.0,1.9132,0.0011,402.26,0.28,-1.0,0.0,138.18,25.48,24.58,36.24,0.04,-272.73,-272.73,-49,558,-937,20.5,1.3,-35.2,20.5,1.3,-34.7,5.73,2.35,-32.9,25.2
2012-03-02 02:18:00,0.0,1.9125,0.0011,402.23,0.35,-0.8,1.3,138.18,25.49,24.57,36.25,0.04,-272.73,-272.73,-49,558,-936,20.5,1.3,-35.2,20.6,1.3,-34.8,5.73,2.49,-32.9,25.2